Location: Gülübeli Geçidi
(36.8411°N, 29.7411°E)
Time: 20:17:27
(UTC+00:00)

IRS-P2 Rocket - Pass Details

Date: 15 May 2026
Orbit: 794 x 875 km, 98.8° (Epoch: 8 June)

Event Time Altitude Azimuth Distance (km) Brightness Sun altitude
Exits shadow 19:53:48 79° 63° (ENE) 819 4.5 -27.0°
Drops below altitude 10° 19:59:00 10° 349° (N) 2,397 7.9 -27.5°
Sets 20:01:22 0° 349° (NNW) 3,342 8.9 -27.8°
